Garrett, IN

12:54 PM EST on December 07, 2016 (GMT -0500)
Auburn

Weather History for KGWB - April, 2013

Change the Weather History Date:

Sunday, April 7, 2013

  Actual Average (KFWA) Record (KFWA)
Temperature  
Mean Temperature 52 °F 47 °F  
Max Temperature 62 °F 58 °F 81 °F (1954)
Min Temperature 42 °F 36 °F 7 °F (1982)
Degree Days  
Heating Degree Days 13 18  
Month to date heating degree days 136  
Since 1 July heating degree days 5560  
Cooling Degree Days 0 0  
Month to date cooling degree days 0  
Year to date cooling degree days 0  
Growing Degree Days 2 (Base 50)    
Moisture  
Dew Point 37 °F    
Average Humidity 53    
Maximum Humidity 82    
Minimum Humidity 34    
Precipitation  
Precipitation 0.04 in 0.12 in 1.41 in (1940)
Month to date precipitation 0.83  
Year to date precipitation 7.84  
Snow  
Snow 0.00 in 0.00 in 2.40 in (1956)
Month to date snowfall 0.4  
Since 1 July snowfall 32.9  
Snow Depth -    
Sea Level Pressure  
Sea Level Pressure 29.86 in    
Wind  
Wind Speed 12 mph (West)    
Max Wind Speed 21 mph    
Max Gust Speed 33 mph    
Visibility 10 miles    
Events Rain    
T = Trace of Precipitation, MM = Missing Value Source: NWS Daily Summary

Daily Weather History Graph

Daily Weather History Graph

Search for Another Location

Airport or City:

Trip Planner

Search our weather history database for the weather conditions in past years. The results will help you decide how hot, cold, wet, or windy it might be!

Date:

Astronomy

Apr. 07, 2013 Rise Set
Actual Time 7:13 AM EDT 8:12 PM EDT
Civil Twilight 6:44 AM EDT 8:40 PM EDT
Nautical Twilight 6:11 AM EDT 9:14 PM EDT
Astronomical Twilight 5:36 AM EDT 9:49 PM EDT
Moon 5:31 AM EDT 5:42 PM EDT
Length of Visible Light 13h 55m
Length of Day
12h 59m
Waning Crescent, 8% of the Moon is Illuminated
Apr 7
Waning Crescent
Apr 10
New
Apr 18
First Quarter
Apr 25
Full
May 2
Last Quarter

Hourly Weather History & Observations

Time (EDT) Temp. Windchill Dew Point Humidity Pressure Visibility Wind Dir Wind Speed Gust Speed Precip Events Conditions
12:15 AM 59.0 °F - 32.0 °F 36% 29.76 in 10.0 mi South 12.7 mph 19.6 mph N/A   Overcast
12:35 AM 60.8 °F - 33.8 °F 36% 29.75 in 10.0 mi South 11.5 mph 19.6 mph N/A   Overcast
12:55 AM 60.8 °F - 32.0 °F 34% 29.74 in 10.0 mi South 12.7 mph 21.9 mph N/A   Scattered Clouds
1:15 AM 60.8 °F - 32.0 °F 34% 29.73 in 10.0 mi SSW 10.4 mph 24.2 mph N/A   Mostly Cloudy
1:35 AM 60.8 °F - 32.0 °F 34% 29.73 in 10.0 mi South 13.8 mph 21.9 mph N/A   Overcast
1:55 AM 60.8 °F - 32.0 °F 34% 29.72 in 10.0 mi SSW 16.1 mph 23.0 mph N/A   Mostly Cloudy
2:15 AM 60.8 °F - 32.0 °F 34% 29.71 in 10.0 mi SSW 12.7 mph 24.2 mph N/A   Mostly Cloudy
2:35 AM 60.8 °F - 33.8 °F 36% 29.71 in 10.0 mi SSW 12.7 mph 25.3 mph N/A   Overcast
2:55 AM 60.8 °F - 33.8 °F 36% 29.74 in 10.0 mi SW 13.8 mph 21.9 mph N/A Rain Rain
3:15 AM 57.2 °F - 41.0 °F 55% 29.74 in 10.0 mi SW 17.3 mph 33.4 mph 0.01 in Rain Rain
3:35 AM 53.6 °F - 42.8 °F 67% 29.72 in 10.0 mi SW 13.8 mph 21.9 mph 0.04 in Rain Light Rain
3:55 AM 53.6 °F - 42.8 °F 67% 29.71 in 10.0 mi SSW 9.2 mph 20.7 mph 0.04 in   Mostly Cloudy
4:15 AM 53.6 °F - 42.8 °F 67% 29.69 in 10.0 mi SSW 9.2 mph 16.1 mph N/A   Scattered Clouds
4:35 AM 55.4 °F - 41.0 °F 58% 29.69 in 10.0 mi SSW 12.7 mph 20.7 mph N/A   Scattered Clouds
4:55 AM 55.4 °F - 41.0 °F 58% 29.68 in 10.0 mi SSW 12.7 mph 18.4 mph N/A   Clear
5:15 AM 55.4 °F - 39.2 °F 54% 29.69 in 10.0 mi SSW 11.5 mph 19.6 mph N/A   Clear
5:35 AM 55.4 °F - 39.2 °F 54% 29.69 in 10.0 mi SW 13.8 mph 20.7 mph N/A   Clear
5:55 AM 55.4 °F - 41.0 °F 58% 29.70 in 10.0 mi SW 13.8 mph 21.9 mph N/A   Clear
6:15 AM 55.4 °F - 41.0 °F 58% 29.71 in 10.0 mi SW 15.0 mph 25.3 mph N/A   Clear
6:35 AM 55.4 °F - 41.0 °F 58% 29.72 in 10.0 mi WSW 12.7 mph 20.7 mph N/A   Clear
6:55 AM 53.6 °F - 42.8 °F 67% 29.74 in 10.0 mi WSW 11.5 mph 19.6 mph N/A   Clear
7:15 AM 53.6 °F - 42.8 °F 67% 29.76 in 10.0 mi WSW 13.8 mph 28.8 mph N/A   Clear
7:35 AM 51.8 °F - 44.6 °F 76% 29.78 in 10.0 mi WSW 12.7 mph 20.7 mph N/A   Scattered Clouds
7:55 AM 51.8 °F - 44.6 °F 76% 29.79 in 10.0 mi WSW 12.7 mph 24.2 mph N/A   Mostly Cloudy
8:15 AM 51.8 °F - 44.6 °F 76% 29.80 in 10.0 mi West 10.4 mph 20.7 mph N/A   Mostly Cloudy
8:35 AM 50.0 °F - 44.6 °F 82% 29.82 in 7.0 mi West 12.7 mph 21.9 mph N/A   Overcast
8:55 AM 50.0 °F - 42.8 °F 76% 29.83 in 10.0 mi West 13.8 mph 23.0 mph N/A   Overcast
9:15 AM 50.0 °F - 42.8 °F 76% 29.83 in 10.0 mi West 13.8 mph 19.6 mph N/A   Overcast
9:35 AM 50.0 °F - 41.0 °F 71% 29.84 in 7.0 mi West 20.7 mph 28.8 mph N/A   Overcast
9:55 AM 50.0 °F - 41.0 °F 71% 29.85 in 10.0 mi West 20.7 mph 26.5 mph N/A   Overcast
10:15 AM 50.0 °F - 41.0 °F 71% 29.85 in 10.0 mi West 17.3 mph 27.6 mph N/A   Overcast
10:35 AM 51.8 °F - 41.0 °F 67% 29.85 in 10.0 mi WSW 15.0 mph 23.0 mph N/A   Mostly Cloudy
10:55 AM 51.8 °F - 41.0 °F 67% 29.86 in 7.0 mi WSW 12.7 mph 24.2 mph N/A   Overcast
11:15 AM 51.8 °F - 41.0 °F 67% 29.87 in 7.0 mi West 15.0 mph 23.0 mph N/A   Overcast
11:35 AM 51.8 °F - 41.0 °F 67% 29.88 in 7.0 mi West 17.3 mph 21.9 mph N/A   Overcast
11:55 AM 53.6 °F - 41.0 °F 62% 29.89 in 7.0 mi West 12.7 mph - N/A   Mostly Cloudy
12:15 PM 55.4 °F - 41.0 °F 58% 29.89 in 10.0 mi West 15.0 mph 19.6 mph N/A   Mostly Cloudy
12:35 PM 55.4 °F - 41.0 °F 58% 29.90 in 10.0 mi West 17.3 mph 21.9 mph N/A   Overcast
12:55 PM 57.2 °F - 41.0 °F 55% 29.90 in 10.0 mi West 16.1 mph 23.0 mph N/A   Mostly Cloudy
1:15 PM 57.2 °F - 41.0 °F 55% 29.91 in 10.0 mi West 13.8 mph 23.0 mph N/A   Mostly Cloudy
1:35 PM 59.0 °F - 39.2 °F 48% 29.91 in 10.0 mi West 12.7 mph 21.9 mph N/A   Scattered Clouds
1:55 PM 60.8 °F - 37.4 °F 42% 29.91 in 10.0 mi West 16.1 mph 23.0 mph N/A   Scattered Clouds
2:15 PM 60.8 °F - 37.4 °F 42% 29.91 in 10.0 mi West 15.0 mph 23.0 mph N/A   Clear
2:35 PM 60.8 °F - 35.6 °F 39% 29.92 in 10.0 mi West 16.1 mph 21.9 mph N/A   Clear
2:55 PM 60.8 °F - 35.6 °F 39% 29.92 in 10.0 mi West 15.0 mph 23.0 mph N/A   Clear
3:15 PM 62.6 °F - 37.4 °F 39% 29.93 in 10.0 mi WNW 15.0 mph 19.6 mph N/A   Clear
3:35 PM 62.6 °F - 37.4 °F 39% 29.93 in 10.0 mi WSW 10.4 mph 20.7 mph N/A   Clear
3:55 PM 62.6 °F - 35.6 °F 37% 29.93 in 10.0 mi WNW 13.8 mph - N/A   Clear
4:15 PM 62.6 °F - 35.6 °F 37% 29.93 in 10.0 mi West 12.7 mph 17.3 mph N/A   Clear
4:35 PM 60.8 °F - 35.6 °F 39% 29.93 in 10.0 mi NW 6.9 mph - N/A   Clear
4:55 PM 60.8 °F - 35.6 °F 39% 29.93 in 10.0 mi NW 6.9 mph 10.4 mph N/A   Clear
5:15 PM 60.8 °F - 35.6 °F 39% 29.94 in 10.0 mi NW 8.1 mph - N/A   Clear
5:35 PM 60.8 °F - 35.6 °F 39% 29.95 in 10.0 mi WNW 11.5 mph - N/A   Clear
5:55 PM 60.8 °F - 33.8 °F 36% 29.95 in 10.0 mi West 9.2 mph - N/A   Clear
6:15 PM 60.8 °F - 33.8 °F 36% 29.96 in 10.0 mi NW 6.9 mph - N/A   Clear
6:35 PM 59.0 °F - 33.8 °F 39% 29.96 in 10.0 mi NW 6.9 mph - N/A   Clear
6:55 PM 59.0 °F - 33.8 °F 39% 29.97 in 10.0 mi NW 6.9 mph - N/A   Clear
7:15 PM 59.0 °F - 33.8 °F 39% 29.96 in 10.0 mi NNW 5.8 mph - N/A   Clear
7:35 PM 55.4 °F - 33.8 °F 44% 29.97 in 10.0 mi NNW 8.1 mph - N/A   Clear
7:55 PM 55.4 °F - 33.8 °F 44% 29.97 in 10.0 mi NNW 4.6 mph - N/A   Clear
8:15 PM 53.6 °F - 33.8 °F 47% 29.97 in 10.0 mi North 3.5 mph - N/A   Clear
8:35 PM 51.8 °F - 33.8 °F 50% 29.97 in 10.0 mi North 3.5 mph - N/A   Clear
8:55 PM 51.8 °F - 33.8 °F 50% 29.97 in 10.0 mi NNE 4.6 mph - N/A   Clear
9:15 PM 50.0 °F - 33.8 °F 54% 29.97 in 10.0 mi North 4.6 mph - N/A   Clear
9:35 PM 48.2 °F - 32.0 °F 54% 29.98 in 10.0 mi NNE 3.5 mph - N/A   Clear
9:55 PM 46.4 °F 45.2 °F 33.8 °F 62% 29.98 in 10.0 mi NNE 3.5 mph - N/A   Clear
10:15 PM 46.4 °F 44.3 °F 32.0 °F 57% 29.99 in 10.0 mi NNE 4.6 mph - N/A   Clear
10:35 PM 46.4 °F 44.3 °F 32.0 °F 57% 29.99 in 10.0 mi NE 4.6 mph - N/A   Clear
10:55 PM 44.6 °F 42.2 °F 32.0 °F 61% 29.99 in 10.0 mi ENE 4.6 mph - N/A   Clear
11:15 PM 42.8 °F 39.3 °F 32.0 °F 66% 29.99 in 10.0 mi ENE 5.8 mph - N/A   Clear
11:35 PM 42.8 °F 39.3 °F 32.0 °F 66% 29.99 in 10.0 mi NE 5.8 mph - N/A   Clear
11:55 PM 42.8 °F 39.3 °F 32.0 °F 66% 30.00 in 10.0 mi ENE 5.8 mph - N/A   Clear